Regional Weather Roundup
Issued by NWS

Home | Current Version | Previous Version | Graphics & Text | Print | Product List | Glossary On
Versions: 1 2 3 4 5 6 7 8 9 10 11 12 13 14 15 16 17 18 19 20 21 22 23 24 25 26 27 28 29 30 31 32 33 34 35 36 37 38 39 40 41 42 43 44 45 46 47 48 49 50
000
ASUS43 KLMK 060310
RWRKY
KENTUCKY REGIONAL WEATHER ROUNDUP
NATIONAL WEATHER SERVICE LOUISVILLE KY
1000 PM EST THU MAR 05 2015

NOTE "FAIR" INDICATES FEW OR NO CLOUDS BELOW 12,000 FEET
WITH NO SIGNIFICANT WEATHER AND/OR OBSTRUCTIONS TO VISIBILITY.

KYZ001>023-026-027-061>063-070>075-060400-
WESTERN AND SOUTH CENTRAL KENTUCKY

CITY           SKY/WX    TMP DP  RH WIND       PRES   REMARKS
PADUCAH        MOCLDY    13   4  67 NE6       30.58S WCI   4
HENDERSON      PTCLDY    16   1  53 N6        30.61R WCI   7
OWENSBORO      PTCLDY    12   3  67 N5        30.60R WCI   4
HOPKINSVILLE   PTCLDY    13   4  65 N3        30.56S
BOWLING GREEN  PTCLDY    16   5  62 NW3       30.55S
GLASGOW        PTCLDY    18   8  66 N5        30.52S WCI  11
$$

KYZ024-025-028>034-038-045-046-053-060400-
NORTH CENTRAL KENTUCKY

CITY           SKY/WX    TMP DP  RH WIND       PRES   REMARKS
LOUISVILLE/SDF MOCLDY    21  10  62 N7        30.55R WCI  12
LOUISVILLE/LOU CLOUDY    21   9  59 N5        30.56R WCI  15
FORT KNOX      PTCLDY    17   7  65 NW8       30.52R WCI   6
$$

KYZ035>037-039>044-047>052-055>060-089>105-060400-
NORTHEAST KENTUCKY

CITY           SKY/WX    TMP DP  RH WIND       PRES   REMARKS
LEXINGTON      PTCLDY    12   9  87 NW3       30.51S
COVINGTON      CLEAR     14   3  61 N6        30.52R WCI   5
FRANKFORT      PTCLDY     6   2  83 NE3       30.52R
$$

KYZ054-064>069-076>088-106>120-060400-
SOUTHEAST KENTUCKY

CITY           SKY/WX    TMP DP  RH WIND       PRES   REMARKS
JACKSON        PTCLDY    14   7  73 CALM      30.48R
LONDON         PTCLDY    12   5  73 CALM      30.49R
SOMERSET       PTCLDY    12  12 100 CALM      30.53S
MIDDLESBORO    FLURRIES  20  14  76 N6        30.49R WCI  13
MONTICELLO     FOG       -2  -8  78 CALM      30.54S VSB 1/4
$$



USA.gov is the U.S. government's official web portal to all federal, state and local government web resources and services.